Regional Weather Roundup
Issued by NWS Raleigh/Durham, NC

Current Version | Previous Version | Text Only | Print | Product List | Glossary On
Versions: 1 2 3 4 5 6 7 8 9 10 11 12 13 14 15 16 17 18 19 20 21 22 23 24 25 26 27 28
000 ASUS42 KRAH 161010 RWRRAH NORTH CAROLINA WEATHER ROUNDUP NATIONAL WEATHER SERVICE RALEIGH NC 500 AM EST SAT DEC 16 2017 NOTE: "FAIR" INDICATES FEW OR NO CLOUDS BELOW 12,000 FEET WITH NO SIGNIFICANT WEATHER AND/OR OBSTRUCTIONS TO VISIBILITY. NCZ001-053-055-056-065-067-161100- WESTERN NORTH CAROLINA CITY SKY/WX TMP DP RH WIND PRES REMARKS ASHEVILLE CLOUDY 29 18 63 N10 30.15F WCI 20 JEFFERSON CLOUDY 25 17 69 W7 30.05S WCI 17 MORGANTON CLEAR 25 20 82 CALM 30.19S HICKORY CLEAR 29 18 63 CALM 30.16S RUTHERFORDTON NOT AVBL MOUNT AIRY CLEAR 34 20 57 W5 30.15S WCI 30 BOONE CLOUDY 26 17 71 N7 30.06F WCI 18 $$ NCZ021-022-025-041-071-084-088-161100- CENTRAL NORTH CAROLINA CITY SKY/WX TMP DP RH WIND PRES REMARKS CHARLOTTE PTCLDY 27 23 85 CALM 30.19F GREENSBORO PTCLDY 27 18 69 SW6 30.16R WCI 20 WINSTON-SALEM CLEAR 27 18 69 CALM 30.17R RALEIGH-DURHAM PTCLDY 27 21 78 CALM 30.19R FORT BRAGG CLOUDY 27 24 91 CALM 30.19S FAYETTEVILLE CLOUDY 30 25 81 CALM 30.19S BURLINGTON CLEAR 30 20 66 SW6 30.17R WCI 24 LAURINBURG CLOUDY 26 24 92 CALM 30.21S $$ NCZ011-015-027-028-043-044-047-080-103-161100- NORTHEASTERN NORTH CAROLINA CITY SKY/WX TMP DP RH WIND PRES REMARKS ROCKY MT-WILSO CLEAR 30 22 72 CALM 30.18S GREENVILLE CLEAR 32 23 69 CALM 30.20R WASHINGTON CLEAR 31 23 71 CALM 30.19R ELIZABETH CITY CLEAR 27 24 89 W3 30.16R MANTEO CLEAR 35 26 71 NW6 30.16R WCI 30 CAPE HATTERAS CLEAR 39 29 67 NW7 30.15R WCI 34 $$ NCZ078-087-090-091-093-098-101-161100- SOUTHEASTERN NORTH CAROLINA CITY SKY/WX TMP DP RH WIND PRES REMARKS LUMBERTON CLOUDY 27 26 96 SW3 30.21R GOLDSBORO CLOUDY 31 22 68 CALM 30.18R KENANSVILLE CLEAR 25 23 93 CALM 30.20S NEW BERN CLEAR 31 24 75 NW3 30.20R CHERRY POINT CLEAR 36 25 64 NW12 30.19R WCI 28 BEAUFORT CLEAR 35 27 72 N9 30.19R WCI 28 JACKSONVILLE CLEAR 31 26 82 W5 30.20R WCI 26 WILMINGTON PTCLDY 34 27 75 NW3 30.21R $$

USA.gov is the U.S. government's official web portal to all federal, state and local government web resources and services.